Location: Chippewa Lake
(41.0698°N, 81.9010°W)
Time: 02:11:53
(UTC+00:00)

Meteor 2-10 - Pass Details

Date: 09 May 2021
Orbit: 737 x 869 km, 81.2° (Epoch: 24 June)

Event Time Altitude Azimuth Distance (km) Brightness Sun altitude
Rises 06:44:08 0° 353° (N) 3,362 8.2 -28.6°
Reaches altitude 10° 06:46:37 10° 357° (N) 2,405 7.3 -28.4°
Maximum altitude 06:51:59 62° 78° (ENE) 889 4.3 -28.0°
Enters shadow 06:52:18 60° 97° (E) 898 4.3 -28.0°
